Tracking 17782 objects as of 26-July-2016
HD Live streaming from Space Station
objects crossing your sky now

COSMOS 1023

Track COSMOS 1023 now!
10-day predictions
COSMOS 1023 is classified as:


NORAD ID: 10961
Int'l Code: 1978-063A
Perigee: 765.1 km
Apogee: 790.0 km
Inclination: 74.1 °
Period: 100.3 minutes
Semi major axis: 7148 km
RCS: 3.0969 m2 (large)
Launch date: June 21, 1978
Source: Commonwealth of Independent States (former USSR) (CIS)
Launch site: PLESETSK MISSILE AND SPACE COMPLEX (PKMTR)
Your satellite tracking list
Your tracking list is empty





NASA's NSSDC Master Catalog

Two Line Element Set (TLE):
1 10961U 78063A   16208.48580389  .00000002  00000-0  94664-5 0  9999
2 10961  74.0745 232.0651 0017374 232.8072 127.1496 14.36396672994369
Source of the keplerian elements: AFSPC

N2YO: 1246